Wetterdaten: Freitag, 03.06.2016
Datum Zeit Auen-Temp. Temp gefhlt Luftfeuchte Luftdruck Regen Wind Richtung Richtung Sonnenschein Taupunkt Windben
03.06.2016 00:00 11,1 C 11,0 C 87 % 1012,8 hPa 0,0 mm 0,0 km/h (0 Bft) W-SW 247 0 min 9,0 C 0,0 km/h (0 Bft)
03.06.2016 00:05 11,1 C 10,9 C 87 % 1012,8 hPa 0,0 mm 0,0 km/h (0 Bft) SW 225 0 min 9,0 C 0,0 km/h (0 Bft)
03.06.2016 00:10 11,1 C 11,0 C 87 % 1012,8 hPa 0,0 mm 0,0 km/h (0 Bft) S 180 0 min 9,0 C 0,0 km/h (0 Bft)
03.06.2016 00:15 11,1 C 11,0 C 87 % 1012,8 hPa 0,0 mm 0,0 km/h (0 Bft) S-SO 157 0 min 9,0 C 0,0 km/h (0 Bft)
03.06.2016 00:20 11,1 C 11,0 C 87 % 1012,8 hPa 0,0 mm 0,0 km/h (0 Bft) W 270 0 min 9,0 C 0,0 km/h (0 Bft)
03.06.2016 00:25 11,1 C 11,0 C 87 % 1012,8 hPa 0,0 mm 0,0 km/h (0 Bft) SO 135 0 min 9,0 C 0,0 km/h (0 Bft)
03.06.2016 00:30 11,1 C 10,9 C 87 % 1012,7 hPa 0,0 mm 0,0 km/h (0 Bft) W 270 0 min 9,0 C 0,0 km/h (0 Bft)
03.06.2016 00:35 11,1 C 10,9 C 87 % 1012,7 hPa 0,0 mm 0,0 km/h (0 Bft) S-SW 202 0 min 9,0 C 0,0 km/h (0 Bft)
03.06.2016 00:40 11,1 C 11,0 C 87 % 1012,7 hPa 0,0 mm 0,6 km/h (0 Bft) N-NO 22 0 min 9,0 C 0,0 km/h (0 Bft)
03.06.2016 00:45 11,1 C 11,0 C 87 % 1012,7 hPa 0,0 mm 1,2 km/h (1 Bft) SW 225 0 min 9,0 C 0,0 km/h (0 Bft)
03.06.2016 00:50 11,1 C 10,9 C 87 % 1012,7 hPa 0,0 mm 0,9 km/h (0 Bft) SW 225 0 min 9,0 C 9,5 km/h (2 Bft)
03.06.2016 00:55 11,0 C 10,8 C 87 % 1012,7 hPa 0,0 mm 0,6 km/h (0 Bft) SO 135 0 min 8,9 C 0,0 km/h (0 Bft)
03.06.2016 01:00 10,9 C 10,8 C 87 % 1012,7 hPa 0,0 mm 0,6 km/h (0 Bft) SO 135 0 min 8,8 C 9,8 km/h (2 Bft)
03.06.2016 01:05 10,9 C 10,7 C 87 % 1012,7 hPa 0,0 mm 0,0 km/h (0 Bft) S-SO 157 0 min 8,8 C 0,0 km/h (0 Bft)
03.06.2016 01:10 10,8 C 10,6 C 87 % 1012,5 hPa 0,0 mm 0,0 km/h (0 Bft) N-NW 337 0 min 8,7 C 0,0 km/h (0 Bft)
03.06.2016 01:15 10,7 C 10,5 C 87 % 1012,5 hPa 0,0 mm 0,0 km/h (0 Bft) NW 315 0 min 8,6 C 0,0 km/h (0 Bft)
03.06.2016 01:18 10,7 C 10,5 C 87 % 1012,5 hPa 0,0 mm 0,0 km/h (0 Bft) NW 315 0 min 8,6 C 0,0 km/h (0 Bft)
03.06.2016 01:20 10,6 C 10,5 C 87 % 1012,5 hPa 0,0 mm 0,0 km/h (0 Bft) O-SO 112 0 min 8,5 C 0,0 km/h (0 Bft)
03.06.2016 01:25 10,6 C 10,5 C 87 % 1012,5 hPa 0,0 mm 0,0 km/h (0 Bft) W-NW 292 0 min 8,5 C 0,0 km/h (0 Bft)
03.06.2016 01:30 10,6 C 10,5 C 87 % 1012,3 hPa 0,0 mm 0,0 km/h (0 Bft) W-NW 292 0 min 8,5 C 0,0 km/h (0 Bft)
03.06.2016 01:35 10,6 C 10,5 C 87 % 1012,3 hPa 0,0 mm 0,0 km/h (0 Bft) O-NO 67 0 min 8,5 C 0,0 km/h (0 Bft)
03.06.2016 01:40 10,6 C 10,5 C 87 % 1012,3 hPa 0,0 mm 0,0 km/h (0 Bft) O-NO 67 0 min 8,5 C 0,0 km/h (0 Bft)
03.06.2016 01:45 10,6 C 10,5 C 87 % 1012,3 hPa 0,0 mm 0,0 km/h (0 Bft) W 270 0 min 8,5 C 0,0 km/h (0 Bft)
03.06.2016 01:50 10,6 C 10,5 C 87 % 1012,3 hPa 0,0 mm 0,0 km/h (0 Bft) N-NW 337 0 min 8,5 C 0,0 km/h (0 Bft)
03.06.2016 01:55 10,6 C 10,6 C 87 % 1012,3 hPa 0,0 mm 0,0 km/h (0 Bft) O 90 0 min 8,5 C 0,0 km/h (0 Bft)
03.06.2016 02:00 10,6 C 10,6 C 87 % 1012,3 hPa 0,0 mm 0,0 km/h (0 Bft) NO 45 0 min 8,5 C 0,0 km/h (0 Bft)
03.06.2016 02:05 10,6 C 10,6 C 87 % 1012,3 hPa 0,0 mm 0,0 km/h (0 Bft) S-SW 202 0 min 8,5 C 0,0 km/h (0 Bft)
03.06.2016 02:10 10,6 C 10,6 C 87 % 1012,2 hPa 0,0 mm 0,6 km/h (0 Bft) SO 135 0 min 8,5 C 0,0 km/h (0 Bft)
03.06.2016 02:15 10,6 C 10,5 C 87 % 1012,2 hPa 0,0 mm 0,6 km/h (0 Bft) S 180 0 min 8,5 C 0,0 km/h (0 Bft)
03.06.2016 02:20 10,6 C 10,5 C 87 % 1012,2 hPa 0,0 mm 0,3 km/h (0 Bft) S 180 0 min 8,5 C 0,0 km/h (0 Bft)
03.06.2016 02:25 10,6 C 10,5 C 87 % 1012,2 hPa 0,0 mm 0,3 km/h (0 Bft) SW 225 0 min 8,5 C 0,0 km/h (0 Bft)
03.06.2016 02:30 10,6 C 10,5 C 87 % 1012,2 hPa 0,0 mm 0,0 km/h (0 Bft) SW 225 0 min 8,5 C 0,0 km/h (0 Bft)
03.06.2016 02:35 10,5 C 10,5 C 87 % 1012,2 hPa 0,0 mm 0,0 km/h (0 Bft) S 180 0 min 8,4 C 0,0 km/h (0 Bft)
03.06.2016 02:40 10,5 C 10,4 C 87 % 1012,2 hPa 0,0 mm 0,0 km/h (0 Bft) W 270 0 min 8,4 C 0,0 km/h (0 Bft)
03.06.2016 02:45 10,5 C 10,4 C 87 % 1012,2 hPa 0,0 mm 0,0 km/h (0 Bft) SW 225 0 min 8,4 C 0,0 km/h (0 Bft)
03.06.2016 02:50 10,5 C 10,5 C 87 % 1012,1 hPa 0,0 mm 0,9 km/h (0 Bft) S 180 0 min 8,4 C 10,4 km/h (2 Bft)
03.06.2016 02:55 10,5 C 10,5 C 87 % 1012,1 hPa 0,0 mm 0,9 km/h (0 Bft) W-SW 247 0 min 8,4 C 0,0 km/h (0 Bft)
03.06.2016 03:00 10,6 C 10,5 C 88 % 1012,1 hPa 0,0 mm 0,3 km/h (0 Bft) S-SW 202 0 min 8,7 C 0,0 km/h (0 Bft)
03.06.2016 03:05 10,5 C 10,5 C 87 % 1012,1 hPa 0,0 mm 0,0 km/h (0 Bft) SO 135 0 min 8,4 C 0,0 km/h (0 Bft)
03.06.2016 03:10 10,5 C 10,5 C 87 % 1012,1 hPa 0,0 mm 0,0 km/h (0 Bft) SO 135 0 min 8,4 C 0,0 km/h (0 Bft)
03.06.2016 03:15 10,5 C 10,4 C 87 % 1012,1 hPa 0,0 mm 0,0 km/h (0 Bft) W-SW 247 0 min 8,4 C 0,0 km/h (0 Bft)
03.06.2016 03:20 10,5 C 10,4 C 88 % 1012,1 hPa 0,0 mm 0,0 km/h (0 Bft) SW 225 0 min 8,6 C 0,0 km/h (0 Bft)
03.06.2016 03:25 10,5 C 10,4 C 88 % 1012,1 hPa 0,0 mm 0,0 km/h (0 Bft) W-SW 247 0 min 8,6 C 0,0 km/h (0 Bft)
03.06.2016 03:30 10,5 C 10,4 C 88 % 1012,0 hPa 0,7 mm 0,0 km/h (0 Bft) SO 135 0 min 8,6 C 0,0 km/h (0 Bft)
03.06.2016 03:35 10,5 C 10,4 C 88 % 1012,0 hPa 0,0 mm 0,0 km/h (0 Bft) S 180 0 min 8,6 C 0,0 km/h (0 Bft)
03.06.2016 03:40 10,5 C 10,4 C 88 % 1012,0 hPa 0,0 mm 0,0 km/h (0 Bft) S-SW 202 0 min 8,6 C 0,0 km/h (0 Bft)
03.06.2016 03:45 10,5 C 10,4 C 88 % 1012,0 hPa 0,0 mm 0,0 km/h (0 Bft) O 90 0 min 8,6 C 0,0 km/h (0 Bft)
03.06.2016 03:50 10,5 C 10,4 C 88 % 1012,0 hPa 0,0 mm 0,0 km/h (0 Bft) SO 135 0 min 8,6 C 0,0 km/h (0 Bft)
03.06.2016 03:55 10,5 C 10,4 C 88 % 1012,0 hPa 0,0 mm 0,0 km/h (0 Bft) N-NO 22 0 min 8,6 C 0,0 km/h (0 Bft)
03.06.2016 04:00 10,5 C 10,4 C 88 % 1012,0 hPa 0,0 mm 0,0 km/h (0 Bft) S-SW 202 0 min 8,6 C 0,0 km/h (0 Bft)
03.06.2016 04:05 10,5 C 10,4 C 88 % 1012,0 hPa 0,0 mm 0,0 km/h (0 Bft) W-SW 247 0 min 8,6 C 0,0 km/h (0 Bft)
03.06.2016 04:10 10,5 C 10,4 C 88 % 1012,0 hPa 0,0 mm 0,0 km/h (0 Bft) S-SO 157 0 min 8,6 C 0,0 km/h (0 Bft)
03.06.2016 04:15 10,5 C 10,4 C 88 % 1012,0 hPa 0,0 mm 0,0 km/h (0 Bft) W-SW 247 0 min 8,6 C 0,0 km/h (0 Bft)
03.06.2016 04:18 10,5 C 10,4 C 88 % 1012,0 hPa 0,0 mm 0,0 km/h (0 Bft) O-SO 112 0 min 8,6 C 0,0 km/h (0 Bft)
03.06.2016 04:19 10,5 C 10,4 C 88 % 1012,0 hPa 0,0 mm 0,0 km/h (0 Bft) O-SO 112 0 min 8,6 C 0,0 km/h (0 Bft)
03.06.2016 04:20 10,5 C 10,4 C 88 % 1012,0 hPa 0,0 mm 0,0 km/h (0 Bft) O-SO 112 0 min 8,6 C 0,0 km/h (0 Bft)
03.06.2016 04:25 10,5 C 10,4 C 88 % 1012,0 hPa 0,0 mm 0,0 km/h (0 Bft) SW 225 0 min 8,6 C 0,0 km/h (0 Bft)
03.06.2016 04:30 10,5 C 10,4 C 88 % 1011,9 hPa 0,0 mm 0,0 km/h (0 Bft) O-NO 67 0 min 8,6 C 0,0 km/h (0 Bft)
03.06.2016 04:35 10,5 C 10,4 C 88 % 1011,9 hPa 0,0 mm 0,0 km/h (0 Bft) SW 225 0 min 8,6 C 0,0 km/h (0 Bft)
03.06.2016 04:40 10,5 C 10,3 C 88 % 1011,9 hPa 0,0 mm 0,0 km/h (0 Bft) W-SW 247 0 min 8,6 C 0,0 km/h (0 Bft)
03.06.2016 04:45 10,5 C 10,3 C 88 % 1011,9 hPa 0,0 mm 0,0 km/h (0 Bft) W-SW 247 0 min 8,6 C 0,0 km/h (0 Bft)
03.06.2016 04:50 10,5 C 10,3 C 88 % 1012,0 hPa 0,0 mm 0,0 km/h (0 Bft) S-SO 157 0 min 8,6 C 0,0 km/h (0 Bft)
03.06.2016 04:55 10,5 C 10,3 C 88 % 1012,0 hPa 0,0 mm 0,0 km/h (0 Bft) SO 135 0 min 8,6 C 0,0 km/h (0 Bft)
03.06.2016 05:00 10,4 C 10,3 C 88 % 1012,0 hPa 0,0 mm 0,0 km/h (0 Bft) W-SW 247 0 min 8,5 C 0,0 km/h (0 Bft)
03.06.2016 05:05 10,4 C 10,3 C 88 % 1012,0 hPa 0,0 mm 0,0 km/h (0 Bft) O-SO 112 0 min 8,5 C 0,0 km/h (0 Bft)
03.06.2016 05:10 10,4 C 10,3 C 88 % 1012,1 hPa 0,0 mm 0,0 km/h (0 Bft) NW 315 0 min 8,5 C 0,0 km/h (0 Bft)
03.06.2016 05:15 10,4 C 10,3 C 88 % 1012,1 hPa 0,0 mm 0,0 km/h (0 Bft) NO 45 0 min 8,5 C 0,0 km/h (0 Bft)
03.06.2016 05:20 10,4 C 10,3 C 88 % 1012,1 hPa 0,0 mm 0,0 km/h (0 Bft) SO 135 0 min 8,5 C 0,0 km/h (0 Bft)
03.06.2016 05:25 10,4 C 10,3 C 88 % 1012,1 hPa 0,0 mm 0,0 km/h (0 Bft) S 180 0 min 8,5 C 0,0 km/h (0 Bft)
03.06.2016 05:30 10,4 C 10,3 C 88 % 1011,9 hPa 0,0 mm 0,0 km/h (0 Bft) SW 225 0 min 8,5 C 0,0 km/h (0 Bft)
03.06.2016 05:35 10,4 C 10,3 C 88 % 1011,9 hPa 0,0 mm 0,0 km/h (0 Bft) W-SW 247 0 min 8,5 C 0,0 km/h (0 Bft)
03.06.2016 05:40 10,4 C 10,3 C 88 % 1011,9 hPa 0,0 mm 0,0 km/h (0 Bft) W-SW 247 0 min 8,5 C 0,0 km/h (0 Bft)
03.06.2016 05:45 10,4 C 10,3 C 88 % 1011,9 hPa 0,0 mm 0,0 km/h (0 Bft) SO 135 0 min 8,5 C 0,0 km/h (0 Bft)
03.06.2016 05:50 10,4 C 10,3 C 88 % 1012,1 hPa 0,0 mm 0,0 km/h (0 Bft) W-SW 247 0 min 8,5 C 0,0 km/h (0 Bft)
03.06.2016 05:55 10,4 C 10,4 C 88 % 1012,1 hPa 0,0 mm 0,0 km/h (0 Bft) S-SO 157 0 min 8,5 C 0,0 km/h (0 Bft)
03.06.2016 06:00 10,5 C 10,4 C 88 % 1012,1 hPa 0,0 mm 0,0 km/h (0 Bft) SW 225 0 min 8,6 C 0,0 km/h (0 Bft)
03.06.2016 06:05 10,5 C 10,4 C 88 % 1012,1 hPa 0,0 mm 0,3 km/h (0 Bft) SO 135 0 min 8,6 C 0,0 km/h (0 Bft)
03.06.2016 06:10 10,5 C 10,5 C 88 % 1012,0 hPa 0,0 mm 0,3 km/h (0 Bft) O-SO 112 0 min 8,6 C 0,0 km/h (0 Bft)
03.06.2016 06:15 10,5 C 10,5 C 88 % 1012,0 hPa 0,0 mm 0,0 km/h (0 Bft) O-NO 67 0 min 8,6 C 0,0 km/h (0 Bft)
03.06.2016 06:20 10,6 C 10,5 C 88 % 1012,0 hPa 0,0 mm 0,0 km/h (0 Bft) O-NO 67 0 min 8,7 C 0,0 km/h (0 Bft)
03.06.2016 06:25 10,6 C 10,6 C 88 % 1012,0 hPa 0,0 mm 0,0 km/h (0 Bft) NO 45 0 min 8,7 C 0,0 km/h (0 Bft)
03.06.2016 06:30 10,6 C 10,7 C 88 % 1011,9 hPa 0,0 mm 0,0 km/h (0 Bft) NO 45 0 min 8,7 C 0,0 km/h (0 Bft)
03.06.2016 06:35 10,6 C 10,7 C 88 % 1011,9 hPa 0,0 mm 0,0 km/h (0 Bft) SW 225 0 min 8,7 C 0,0 km/h (0 Bft)
03.06.2016 06:40 10,7 C 10,8 C 88 % 1011,9 hPa 0,0 mm 0,0 km/h (0 Bft) W-NW 292 0 min 8,8 C 0,0 km/h (0 Bft)
03.06.2016 06:45 10,7 C 10,9 C 88 % 1011,9 hPa 0,0 mm 0,0 km/h (0 Bft) S-SO 157 0 min 8,8 C 0,0 km/h (0 Bft)
03.06.2016 06:50 10,7 C 10,9 C 88 % 1012,0 hPa 0,0 mm 0,0 km/h (0 Bft) S-SO 157 0 min 8,8 C 0,0 km/h (0 Bft)
03.06.2016 06:55 10,8 C 10,9 C 88 % 1012,0 hPa 0,0 mm 0,0 km/h (0 Bft) NO 45 0 min 8,9 C 0,0 km/h (0 Bft)
03.06.2016 07:00 10,8 C 11,0 C 88 % 1012,0 hPa 0,0 mm 0,0 km/h (0 Bft) N-NO 22 0 min 8,9 C 0,0 km/h (0 Bft)
03.06.2016 07:05 10,8 C 11,0 C 88 % 1012,0 hPa 0,0 mm 0,0 km/h (0 Bft) W-NW 292 0 min 8,9 C 0,0 km/h (0 Bft)
03.06.2016 07:10 10,9 C 11,1 C 88 % 1012,2 hPa 0,0 mm 0,0 km/h (0 Bft) NO 45 0 min 9,0 C 0,0 km/h (0 Bft)
03.06.2016 07:15 10,9 C 11,2 C 88 % 1012,2 hPa 0,0 mm 0,0 km/h (0 Bft) NO 45 0 min 9,0 C 0,0 km/h (0 Bft)
03.06.2016 07:18 11,0 C 11,3 C 88 % 1012,2 hPa 0,0 mm 0,0 km/h (0 Bft) O-SO 112 0 min 9,1 C 0,0 km/h (0 Bft)
03.06.2016 07:20 11,0 C 11,3 C 88 % 1012,2 hPa 0,0 mm 0,0 km/h (0 Bft) O-SO 112 0 min 9,1 C 0,0 km/h (0 Bft)
03.06.2016 07:25 11,0 C 11,3 C 88 % 1012,2 hPa 0,0 mm 0,0 km/h (0 Bft) SO 135 0 min 9,1 C 0,0 km/h (0 Bft)
03.06.2016 07:30 11,0 C 11,3 C 88 % 1012,3 hPa 0,0 mm 0,0 km/h (0 Bft) O 90 0 min 9,1 C 0,0 km/h (0 Bft)
03.06.2016 07:35 11,1 C 11,4 C 88 % 1012,3 hPa 0,0 mm 0,0 km/h (0 Bft) NO 45 0 min 9,2 C 0,0 km/h (0 Bft)
03.06.2016 07:40 11,2 C 11,6 C 88 % 1012,3 hPa 0,0 mm 0,0 km/h (0 Bft) O-NO 67 0 min 9,3 C 0,0 km/h (0 Bft)
03.06.2016 07:45 11,3 C 11,6 C 88 % 1012,3 hPa 0,0 mm 0,0 km/h (0 Bft) O 90 0 min 9,4 C 0,0 km/h (0 Bft)
03.06.2016 07:50 11,4 C 11,8 C 88 % 1012,2 hPa 0,0 mm 0,0 km/h (0 Bft) N-NO 22 0 min 9,5 C 0,0 km/h (0 Bft)
03.06.2016 07:55 11,5 C 12,0 C 88 % 1012,2 hPa 0,0 mm 0,0 km/h (0 Bft) N 360 0 min 9,6 C 0,0 km/h (0 Bft)
03.06.2016 08:00 11,6 C 12,3 C 88 % 1012,2 hPa 0,0 mm 0,0 km/h (0 Bft) O 90 0 min 9,7 C 0,0 km/h (0 Bft)
03.06.2016 08:05 11,6 C 12,5 C 88 % 1012,2 hPa 0,0 mm 0,0 km/h (0 Bft) N-NO 22 0 min 9,7 C 0,0 km/h (0 Bft)
03.06.2016 08:10 11,8 C 12,8 C 88 % 1012,2 hPa 0,0 mm 0,0 km/h (0 Bft) O-NO 67 0 min 9,9 C 0,0 km/h (0 Bft)
03.06.2016 08:15 11,9 C 13,0 C 88 % 1012,2 hPa 0,0 mm 0,0 km/h (0 Bft) O-NO 67 0 min 10,0 C 0,0 km/h (0 Bft)
03.06.2016 08:20 12,0 C 13,3 C 88 % 1012,2 hPa 0,0 mm 0,0 km/h (0 Bft) N-NO 22 0 min 10,1 C 0,0 km/h (0 Bft)
03.06.2016 08:25 12,1 C 13,5 C 88 % 1012,2 hPa 0,0 mm 0,0 km/h (0 Bft) N-NW 337 0 min 10,2 C 0,0 km/h (0 Bft)
03.06.2016 08:30 12,4 C 14,0 C 88 % 1012,2 hPa 0,0 mm 0,0 km/h (0 Bft) NW 315 0 min 10,5 C 0,0 km/h (0 Bft)
03.06.2016 08:35 12,6 C 14,4 C 88 % 1012,2 hPa 0,0 mm 0,0 km/h (0 Bft) S-SW 202 0 min 10,7 C 0,0 km/h (0 Bft)
03.06.2016 08:40 12,9 C 14,7 C 88 % 1012,2 hPa 0,0 mm 0,6 km/h (0 Bft) SW 225 0 min 11,0 C 0,0 km/h (0 Bft)
03.06.2016 08:45 13,1 C 15,0 C 87 % 1012,2 hPa 0,0 mm 0,6 km/h (0 Bft) W-SW 247 0 min 11,0 C 0,0 km/h (0 Bft)
03.06.2016 08:50 13,4 C 15,3 C 87 % 1012,4 hPa 0,0 mm 0,0 km/h (0 Bft) NO 45 0 min 11,3 C 0,0 km/h (0 Bft)
03.06.2016 08:55 13,4 C 15,6 C 87 % 1012,4 hPa 0,0 mm 0,0 km/h (0 Bft) O-NO 67 0 min 11,3 C 0,0 km/h (0 Bft)
03.06.2016 09:00 13,6 C 15,9 C 87 % 1012,4 hPa 0,0 mm 0,0 km/h (0 Bft) N-NO 22 0 min 11,5 C 0,0 km/h (0 Bft)
03.06.2016 09:05 13,6 C 16,1 C 86 % 1012,4 hPa 0,0 mm 0,0 km/h (0 Bft) N-NW 337 0 min 11,3 C 0,0 km/h (0 Bft)
03.06.2016 09:10 13,7 C 16,5 C 86 % 1012,4 hPa 0,0 mm 0,0 km/h (0 Bft) W 270 0 min 11,4 C 0,0 km/h (0 Bft)
03.06.2016 09:15 14,0 C 16,8 C 86 % 1012,4 hPa 0,0 mm 0,0 km/h (0 Bft) W-NW 292 0 min 11,7 C 0,0 km/h (0 Bft)
03.06.2016 09:20 14,2 C 17,1 C 85 % 1012,4 hPa 0,0 mm 0,0 km/h (0 Bft) S-SW 202 5 min 11,7 C 0,0 km/h (0 Bft)
03.06.2016 09:25 14,4 C 17,4 C 85 % 1012,4 hPa 0,0 mm 0,0 km/h (0 Bft) N-NW 337 5 min 11,9 C 0,0 km/h (0 Bft)
03.06.2016 09:30 14,6 C 17,7 C 84 % 1012,6 hPa 0,0 mm 0,0 km/h (0 Bft) W-NW 292 5 min 11,9 C 0,0 km/h (0 Bft)
03.06.2016 09:35 14,6 C 17,7 C 83 % 1012,6 hPa 0,0 mm 0,9 km/h (0 Bft) W-SW 247 5 min 11,7 C 0,0 km/h (0 Bft)
03.06.2016 09:40 14,8 C 18,0 C 83 % 1012,6 hPa 0,0 mm 0,9 km/h (0 Bft) S 180 5 min 11,9 C 0,0 km/h (0 Bft)
03.06.2016 09:45 14,7 C 18,3 C 82 % 1012,6 hPa 0,0 mm 0,0 km/h (0 Bft) NW 315 5 min 11,7 C 0,0 km/h (0 Bft)
03.06.2016 09:50 15,0 C 18,7 C 81 % 1012,3 hPa 0,0 mm 0,0 km/h (0 Bft) W 270 5 min 11,8 C 0,0 km/h (0 Bft)
03.06.2016 09:55 15,2 C 19,0 C 80 % 1012,3 hPa 0,0 mm 0,3 km/h (0 Bft) W 270 5 min 11,8 C 0,0 km/h (0 Bft)
03.06.2016 10:00 15,5 C 19,3 C 79 % 1012,3 hPa 0,0 mm 1,5 km/h (1 Bft) NW 315 5 min 11,9 C 0,0 km/h (0 Bft)
03.06.2016 10:05 15,5 C 19,4 C 79 % 1012,3 hPa 0,0 mm 2,7 km/h (1 Bft) NW 315 5 min 11,9 C 8,0 km/h (2 Bft)
03.06.2016 10:10 15,6 C 19,8 C 78 % 1012,5 hPa 0,0 mm 2,4 km/h (1 Bft) W-SW 247 5 min 11,8 C 10,7 km/h (2 Bft)
03.06.2016 10:15 15,9 C 20,3 C 78 % 1012,5 hPa 0,0 mm 2,1 km/h (1 Bft) N-NW 337 5 min 12,1 C 4,8 km/h (1 Bft)
03.06.2016 10:18 16,3 C 21,1 C 77 % 1012,5 hPa 0,0 mm 1,2 km/h (1 Bft) W 270 3 min 12,3 C 0,0 km/h (0 Bft)
03.06.2016 10:21 16,3 C 21,1 C 77 % 1012,5 hPa 0,0 mm 1,2 km/h (1 Bft) W 270 3 min 12,3 C 0,0 km/h (0 Bft)
03.06.2016 10:25 16,5 C 21,9 C 76 % 1012,5 hPa 0,0 mm 2,1 km/h (1 Bft) NO 45 4 min 12,3 C 8,9 km/h (2 Bft)
03.06.2016 10:30 16,3 C 21,6 C 74 % 1012,4 hPa 0,0 mm 1,5 km/h (1 Bft) SW 225 5 min 11,7 C 5,1 km/h (1 Bft)
03.06.2016 10:35 16,3 C 21,4 C 72 % 1012,4 hPa 0,0 mm 2,1 km/h (1 Bft) O-NO 67 5 min 11,2 C 0,0 km/h (0 Bft)
03.06.2016 10:40 16,2 C 21,1 C 71 % 1012,4 hPa 0,0 mm 2,7 km/h (1 Bft) NO 45 5 min 10,9 C 5,7 km/h (1 Bft)
03.06.2016 10:45 16,2 C 21,0 C 70 % 1012,4 hPa 0,0 mm 2,7 km/h (1 Bft) W 270 5 min 10,7 C 0,0 km/h (0 Bft)
03.06.2016 10:50 16,7 C 22,0 C 71 % 1012,6 hPa 0,0 mm 2,7 km/h (1 Bft) NW 315 5 min 11,4 C 3,3 km/h (1 Bft)
03.06.2016 10:55 16,8 C 22,0 C 70 % 1012,6 hPa 0,0 mm 2,7 km/h (1 Bft) W-NW 292 5 min 11,3 C 0,0 km/h (0 Bft)
03.06.2016 11:00 16,5 C 22,0 C 70 % 1012,6 hPa 0,0 mm 2,4 km/h (1 Bft) O-NO 67 5 min 11,0 C 9,5 km/h (2 Bft)
03.06.2016 11:05 16,5 C 21,9 C 70 % 1012,6 hPa 0,0 mm 1,8 km/h (1 Bft) W-NW 292 5 min 11,0 C 0,0 km/h (0 Bft)
03.06.2016 11:10 16,7 C 21,8 C 68 % 1012,6 hPa 0,0 mm 5,1 km/h (1 Bft) NO 45 5 min 10,8 C 11,6 km/h (2 Bft)
03.06.2016 11:15 17,2 C 22,4 C 67 % 1012,6 hPa 0,0 mm 6,3 km/h (2 Bft) NW 315 5 min 11,0 C 6,3 km/h (2 Bft)
03.06.2016 11:20 17,3 C 23,0 C 67 % 1012,6 hPa 0,0 mm 5,4 km/h (1 Bft) NW 315 5 min 11,1 C 6,3 km/h (2 Bft)
03.06.2016 11:25 17,3 C 22,7 C 67 % 1012,6 hPa 0,0 mm 4,2 km/h (1 Bft) N-NW 337 5 min 11,1 C 14,9 km/h (3 Bft)
03.06.2016 11:30 17,2 C 22,2 C 67 % 1012,8 hPa 0,0 mm 4,5 km/h (1 Bft) NO 45 5 min 11,0 C 6,9 km/h (2 Bft)
03.06.2016 11:35 17,0 C 21,7 C 67 % 1012,8 hPa 0,0 mm 6,6 km/h (2 Bft) O-NO 67 5 min 10,8 C 3,0 km/h (1 Bft)
03.06.2016 11:40 17,1 C 21,7 C 68 % 1012,8 hPa 0,0 mm 6,9 km/h (2 Bft) N-NW 337 5 min 11,1 C 11,0 km/h (2 Bft)
03.06.2016 11:45 17,3 C 21,7 C 68 % 1012,8 hPa 0,0 mm 5,4 km/h (1 Bft) N-NW 337 5 min 11,3 C 8,6 km/h (2 Bft)
03.06.2016 11:50 17,2 C 22,0 C 65 % 1012,9 hPa 0,0 mm 3,6 km/h (1 Bft) N-NO 22 5 min 10,6 C 4,5 km/h (1 Bft)
03.06.2016 11:55 17,6 C 22,2 C 66 % 1012,9 hPa 0,0 mm 2,4 km/h (1 Bft) W-SW 247 5 min 11,2 C 0,0 km/h (0 Bft)
03.06.2016 12:00 17,5 C 22,1 C 67 % 1012,9 hPa 0,0 mm 5,1 km/h (1 Bft) NW 315 5 min 11,3 C 10,1 km/h (2 Bft)
03.06.2016 12:05 17,5 C 21,8 C 67 % 1012,9 hPa 0,0 mm 6,0 km/h (2 Bft) NW 315 5 min 11,3 C 6,6 km/h (2 Bft)
03.06.2016 12:10 18,1 C 22,5 C 66 % 1012,8 hPa 0,0 mm 7,7 km/h (2 Bft) NW 315 5 min 11,6 C 15,5 km/h (3 Bft)
03.06.2016 12:15 18,2 C 23,8 C 66 % 1012,8 hPa 0,0 mm 7,2 km/h (2 Bft) N-NW 337 5 min 11,7 C 7,2 km/h (2 Bft)
03.06.2016 12:20 18,4 C 23,9 C 67 % 1012,8 hPa 0,0 mm 7,5 km/h (2 Bft) W 270 5 min 12,2 C 17,6 km/h (3 Bft)
03.06.2016 12:25 18,6 C 24,7 C 66 % 1012,8 hPa 0,0 mm 6,9 km/h (2 Bft) NO 45 5 min 12,1 C 3,6 km/h (1 Bft)
03.06.2016 12:30 18,4 C 24,4 C 66 % 1012,9 hPa 0,0 mm 4,8 km/h (1 Bft) NW 315 5 min 11,9 C 0,0 km/h (0 Bft)
03.06.2016 12:35 18,1 C 23,7 C 66 % 1012,9 hPa 0,0 mm 3,3 km/h (1 Bft) N-NW 337 5 min 11,6 C 13,1 km/h (3 Bft)
03.06.2016 12:40 17,9 C 22,7 C 65 % 1012,9 hPa 0,0 mm 3,0 km/h (1 Bft) N-NW 337 5 min 11,2 C 0,0 km/h (0 Bft)
03.06.2016 12:45 18,3 C 23,6 C 65 % 1012,9 hPa 0,0 mm 3,3 km/h (1 Bft) W 270 5 min 11,6 C 7,7 km/h (2 Bft)
03.06.2016 12:50 17,9 C 22,7 C 66 % 1012,9 hPa 0,0 mm 6,0 km/h (2 Bft) W-NW 292 5 min 11,5 C 5,1 km/h (1 Bft)
03.06.2016 12:55 17,6 C 21,8 C 65 % 1012,9 hPa 0,0 mm 6,6 km/h (2 Bft) N 360 5 min 10,9 C 4,2 km/h (1 Bft)
03.06.2016 13:00 17,3 C 20,9 C 66 % 1012,9 hPa 0,0 mm 5,1 km/h (1 Bft) NW 315 5 min 10,9 C 0,0 km/h (0 Bft)
03.06.2016 13:05 17,5 C 21,0 C 66 % 1012,9 hPa 0,0 mm 4,8 km/h (1 Bft) O 90 0 min 11,1 C 0,0 km/h (0 Bft)
03.06.2016 13:10 18,4 C 22,7 C 65 % 1012,8 hPa 0,0 mm 1,8 km/h (1 Bft) N 360 0 min 11,7 C 0,0 km/h (0 Bft)
03.06.2016 13:15 19,2 C 25,6 C 65 % 1012,8 hPa 0,0 mm 2,1 km/h (1 Bft) W-SW 247 5 min 12,5 C 7,7 km/h (2 Bft)
03.06.2016 13:20 18,5 C 24,3 C 63 % 1012,8 hPa 0,0 mm 5,1 km/h (1 Bft) W 270 5 min 11,3 C 9,8 km/h (2 Bft)
03.06.2016 13:22 18,5 C 24,3 C 63 % 1012,8 hPa 0,0 mm 5,1 km/h (1 Bft) W 270 2 min 11,3 C 9,8 km/h (2 Bft)
03.06.2016 13:25 18,2 C 23,4 C 64 % 1012,8 hPa 0,0 mm 5,7 km/h (1 Bft) NW 315 3 min 11,3 C 7,7 km/h (2 Bft)
03.06.2016 13:30 18,3 C 23,1 C 65 % 1012,6 hPa 0,0 mm 2,4 km/h (1 Bft) W-NW 292 5 min 11,6 C 0,0 km/h (0 Bft)
03.06.2016 13:35 18,5 C 23,0 C 65 % 1012,6 hPa 0,0 mm 2,7 km/h (1 Bft) NW 315 5 min 11,8 C 13,1 km/h (3 Bft)
03.06.2016 13:40 18,9 C 23,0 C 65 % 1012,6 hPa 0,0 mm 3,9 km/h (1 Bft) W-SW 247 0 min 12,2 C 7,7 km/h (2 Bft)
03.06.2016 13:45 19,3 C 24,6 C 64 % 1012,6 hPa 0,0 mm 5,7 km/h (1 Bft) W-NW 292 5 min 12,3 C 12,2 km/h (2 Bft)
03.06.2016 13:50 19,9 C 25,9 C 64 % 1012,5 hPa 0,0 mm 4,8 km/h (1 Bft) W 270 5 min 12,9 C 9,2 km/h (2 Bft)
03.06.2016 13:55 19,7 C 26,6 C 63 % 1012,5 hPa 0,0 mm 4,8 km/h (1 Bft) W 270 5 min 12,5 C 6,9 km/h (2 Bft)
03.06.2016 14:00 18,8 C 24,0 C 64 % 1012,5 hPa 0,0 mm 7,7 km/h (2 Bft) W 270 5 min 11,8 C 17,9 km/h (3 Bft)
03.06.2016 14:05 18,5 C 22,6 C 64 % 1012,5 hPa 0,0 mm 8,3 km/h (2 Bft) N 360 5 min 11,6 C 9,2 km/h (2 Bft)
03.06.2016 14:10 18,5 C 22,5 C 64 % 1012,4 hPa 0,0 mm 5,4 km/h (1 Bft) W 270 5 min 11,6 C 5,4 km/h (1 Bft)
03.06.2016 14:15 19,0 C 23,1 C 64 % 1012,4 hPa 0,0 mm 3,3 km/h (1 Bft) NW 315 0 min 12,0 C 9,2 km/h (2 Bft)
03.06.2016 14:20 19,2 C 24,2 C 63 % 1012,4 hPa 0,0 mm 4,2 km/h (1 Bft) W-NW 292 5 min 12,0 C 19,4 km/h (3 Bft)
03.06.2016 14:25 19,0 C 24,0 C 63 % 1012,4 hPa 0,0 mm 5,7 km/h (1 Bft) S-SW 202 5 min 11,8 C 3,0 km/h (1 Bft)
03.06.2016 14:30 18,6 C 23,0 C 63 % 1012,2 hPa 0,0 mm 2,4 km/h (1 Bft) SW 225 5 min 11,4 C 0,0 km/h (0 Bft)
03.06.2016 14:35 18,4 C 22,1 C 63 % 1012,2 hPa 0,0 mm 3,6 km/h (1 Bft) SW 225 5 min 11,2 C 11,9 km/h (2 Bft)
03.06.2016 14:40 18,3 C 20,8 C 64 % 1012,2 hPa 0,0 mm 8,0 km/h (2 Bft) W-SW 247 0 min 11,4 C 8,3 km/h (2 Bft)
03.06.2016 14:45 18,5 C 20,4 C 64 % 1012,2 hPa 0,0 mm 9,8 km/h (2 Bft) SW 225 0 min 11,6 C 12,2 km/h (2 Bft)
03.06.2016 14:50 18,5 C 20,6 C 66 % 1012,1 hPa 0,0 mm 6,9 km/h (2 Bft) S 180 0 min 12,0 C 7,5 km/h (2 Bft)
03.06.2016 14:55 18,5 C 20,6 C 66 % 1012,1 hPa 0,0 mm 4,8 km/h (1 Bft) S-SW 202 0 min 12,0 C 13,4 km/h (3 Bft)
03.06.2016 15:00 18,2 C 20,2 C 66 % 1012,1 hPa 0,0 mm 3,9 km/h (1 Bft) SW 225 0 min 11,7 C 0,0 km/h (0 Bft)
03.06.2016 15:05 18,1 C 19,9 C 67 % 1012,1 hPa 0,0 mm 2,7 km/h (1 Bft) S 180 0 min 11,9 C 0,0 km/h (0 Bft)
03.06.2016 15:10 17,7 C 19,8 C 68 % 1012,0 hPa 0,0 mm 0,0 km/h (0 Bft) W-SW 247 0 min 11,7 C 0,0 km/h (0 Bft)
03.06.2016 15:15 17,8 C 19,8 C 68 % 1012,0 hPa 0,0 mm 0,0 km/h (0 Bft) NW 315 0 min 11,8 C 0,0 km/h (0 Bft)
03.06.2016 15:20 17,9 C 19,4 C 69 % 1012,0 hPa 0,0 mm 0,0 km/h (0 Bft) SW 225 0 min 12,1 C 0,0 km/h (0 Bft)
03.06.2016 15:25 17,9 C 18,8 C 70 % 1012,0 hPa 0,0 mm 0,0 km/h (0 Bft) S 180 0 min 12,3 C 0,0 km/h (0 Bft)
03.06.2016 15:30 17,8 C 18,5 C 70 % 1011,9 hPa 0,0 mm 0,0 km/h (0 Bft) NW 315 0 min 12,3 C 0,0 km/h (0 Bft)
03.06.2016 15:35 17,9 C 19,0 C 71 % 1011,9 hPa 0,0 mm 0,0 km/h (0 Bft) NO 45 0 min 12,6 C 0,0 km/h (0 Bft)
03.06.2016 15:40 18,1 C 20,6 C 71 % 1011,9 hPa 0,0 mm 0,6 km/h (0 Bft) N 360 5 min 12,8 C 0,0 km/h (0 Bft)
03.06.2016 15:45 17,9 C 20,4 C 71 % 1011,9 hPa 0,0 mm 0,6 km/h (0 Bft) W-NW 292 0 min 12,6 C 0,0 km/h (0 Bft)
03.06.2016 15:50 17,7 C 19,6 C 71 % 1012,0 hPa 0,0 mm 2,1 km/h (1 Bft) S-SO 157 0 min 12,4 C 0,0 km/h (0 Bft)
03.06.2016 15:55 17,4 C 19,2 C 71 % 1012,0 hPa 0,0 mm 2,1 km/h (1 Bft) NO 45 0 min 12,1 C 0,0 km/h (0 Bft)
03.06.2016 16:00 17,0 C 18,2 C 72 % 1012,0 hPa 0,0 mm 0,0 km/h (0 Bft) N-NO 22 0 min 11,9 C 0,0 km/h (0 Bft)
03.06.2016 16:05 16,9 C 17,5 C 73 % 1012,0 hPa 0,0 mm 0,0 km/h (0 Bft) NW 315 0 min 12,0 C 0,0 km/h (0 Bft)
03.06.2016 16:10 16,6 C 16,8 C 73 % 1011,9 hPa 0,0 mm 0,6 km/h (0 Bft) W 270 0 min 11,7 C 0,0 km/h (0 Bft)
03.06.2016 16:15 16,1 C 16,2 C 73 % 1011,9 hPa 0,7 mm 1,5 km/h (1 Bft) NW 315 0 min 11,3 C 0,0 km/h (0 Bft)
03.06.2016 16:20 15,5 C 15,0 C 75 % 1011,9 hPa 0,7 mm 0,9 km/h (0 Bft) S-SW 202 0 min 11,1 C 0,0 km/h (0 Bft)
03.06.2016 16:23 15,5 C 15,0 C 75 % 1011,9 hPa 0,0 mm 0,9 km/h (0 Bft) S-SW 202 0 min 11,1 C 0,0 km/h (0 Bft)
03.06.2016 16:25 15,0 C 14,5 C 75 % 1011,9 hPa 1,4 mm 0,6 km/h (0 Bft) NW 315 0 min 10,6 C 13,1 km/h (3 Bft)
03.06.2016 16:30 14,4 C 13,9 C 77 % 1012,2 hPa 4,8 mm 4,2 km/h (1 Bft) N 360 0 min 10,4 C 19,7 km/h (3 Bft)
03.06.2016 16:35 14,0 C 13,4 C 77 % 1012,2 hPa 0,7 mm 6,6 km/h (2 Bft) NW 315 0 min 10,0 C 7,7 km/h (2 Bft)
03.06.2016 16:40 13,1 C 12,5 C 78 % 1012,2 hPa 2,1 mm 7,2 km/h (2 Bft) S 180 0 min 9,4 C 16,7 km/h (3 Bft)
03.06.2016 16:45 12,8 C 12,2 C 79 % 1012,2 hPa 0,0 mm 7,5 km/h (2 Bft) NO 45 0 min 9,2 C 7,7 km/h (2 Bft)
03.06.2016 16:50 12,6 C 12,1 C 79 % 1012,2 hPa 0,7 mm 4,2 km/h (1 Bft) O-SO 112 0 min 9,1 C 0,0 km/h (0 Bft)
03.06.2016 16:55 12,4 C 11,9 C 79 % 1012,2 hPa 1,4 mm 1,2 km/h (1 Bft) S-SO 157 0 min 8,9 C 0,0 km/h (0 Bft)
03.06.2016 17:00 12,1 C 11,8 C 81 % 1012,2 hPa 0,0 mm 0,0 km/h (0 Bft) S 180 0 min 8,9 C 0,0 km/h (0 Bft)
03.06.2016 17:05 12,1 C 11,8 C 83 % 1012,2 hPa 0,0 mm 0,6 km/h (0 Bft) SO 135 0 min 9,3 C 0,0 km/h (0 Bft)
03.06.2016 17:10 12,0 C 11,8 C 83 % 1012,0 hPa 0,0 mm 1,2 km/h (1 Bft) S-SO 157 0 min 9,2 C 0,0 km/h (0 Bft)
03.06.2016 17:15 12,1 C 11,9 C 83 % 1012,0 hPa 0,7 mm 0,6 km/h (0 Bft) SO 135 0 min 9,3 C 0,0 km/h (0 Bft)
03.06.2016 17:20 12,2 C 12,0 C 83 % 1012,0 hPa 0,0 mm 0,0 km/h (0 Bft) S-SW 202 0 min 9,4 C 0,0 km/h (0 Bft)
03.06.2016 17:25 12,2 C 12,0 C 83 % 1012,0 hPa 0,0 mm 0,0 km/h (0 Bft) S 180 0 min 9,4 C 0,0 km/h (0 Bft)
03.06.2016 17:30 12,1 C 12,0 C 83 % 1012,2 hPa 0,0 mm 0,0 km/h (0 Bft) S-SO 157 0 min 9,3 C 0,0 km/h (0 Bft)
03.06.2016 17:35 12,1 C 12,0 C 83 % 1012,2 hPa 0,0 mm 0,0 km/h (0 Bft) W-SW 247 0 min 9,3 C 0,0 km/h (0 Bft)
03.06.2016 17:40 12,2 C 12,0 C 84 % 1012,2 hPa 0,0 mm 0,0 km/h (0 Bft) NW 315 0 min 9,6 C 0,0 km/h (0 Bft)
03.06.2016 17:45 12,1 C 12,0 C 84 % 1012,2 hPa 0,0 mm 0,0 km/h (0 Bft) NW 315 0 min 9,5 C 0,0 km/h (0 Bft)
03.06.2016 17:50 12,0 C 11,8 C 84 % 1012,2 hPa 0,0 mm 2,1 km/h (1 Bft) NW 315 0 min 9,4 C 17,0 km/h (3 Bft)
03.06.2016 17:55 11,9 C 11,7 C 84 % 1012,2 hPa 0,7 mm 1,8 km/h (1 Bft) SW 225 0 min 9,3 C 0,0 km/h (0 Bft)
03.06.2016 18:00 11,7 C 11,6 C 84 % 1012,2 hPa 0,0 mm 0,0 km/h (0 Bft) SW 225 0 min 9,1 C 0,0 km/h (0 Bft)
03.06.2016 18:05 11,7 C 11,5 C 84 % 1012,2 hPa 0,7 mm 0,0 km/h (0 Bft) SW 225 0 min 9,1 C 0,0 km/h (0 Bft)
03.06.2016 18:10 11,6 C 11,4 C 85 % 1012,5 hPa 0,0 mm 1,5 km/h (1 Bft) S-SO 157 0 min 9,2 C 7,7 km/h (2 Bft)
03.06.2016 18:15 11,5 C 11,4 C 85 % 1012,5 hPa 0,0 mm 2,1 km/h (1 Bft) S-SO 157 0 min 9,1 C 0,0 km/h (0 Bft)
03.06.2016 18:20 11,5 C 11,4 C 85 % 1012,5 hPa 0,0 mm 1,2 km/h (1 Bft) S-SO 157 0 min 9,1 C 0,0 km/h (0 Bft)
03.06.2016 18:25 11,5 C 11,4 C 85 % 1012,5 hPa 0,0 mm 0,0 km/h (0 Bft) S 180 0 min 9,1 C 0,0 km/h (0 Bft)
03.06.2016 18:30 11,4 C 11,3 C 85 % 1012,4 hPa 0,7 mm 0,0 km/h (0 Bft) S 180 0 min 9,0 C 0,0 km/h (0 Bft)
03.06.2016 18:35 11,4 C 11,3 C 85 % 1012,4 hPa 0,0 mm 0,0 km/h (0 Bft) SO 135 0 min 9,0 C 0,0 km/h (0 Bft)
03.06.2016 18:40 11,4 C 11,3 C 86 % 1012,4 hPa 0,0 mm 0,0 km/h (0 Bft) SO 135 0 min 9,1 C 0,0 km/h (0 Bft)
03.06.2016 18:45 11,4 C 11,4 C 86 % 1012,4 hPa 0,7 mm 0,0 km/h (0 Bft) S-SO 157 0 min 9,1 C 0,0 km/h (0 Bft)
03.06.2016 18:50 11,3 C 11,3 C 86 % 1012,3 hPa 0,0 mm 0,0 km/h (0 Bft) S-SO 157 0 min 9,0 C 0,0 km/h (0 Bft)
03.06.2016 18:55 11,3 C 11,3 C 86 % 1012,3 hPa 0,7 mm 0,0 km/h (0 Bft) S-SO 157 0 min 9,0 C 0,0 km/h (0 Bft)
03.06.2016 19:00 11,5 C 11,5 C 86 % 1012,3 hPa 0,0 mm 0,0 km/h (0 Bft) S-SO 157 0 min 9,2 C 0,0 km/h (0 Bft)
03.06.2016 19:05 11,6 C 11,6 C 86 % 1012,3 hPa 0,0 mm 0,0 km/h (0 Bft) S 180 0 min 9,3 C 0,0 km/h (0 Bft)
03.06.2016 19:10 11,7 C 11,8 C 86 % 1012,2 hPa 0,0 mm 0,0 km/h (0 Bft) S 180 0 min 9,4 C 0,0 km/h (0 Bft)
03.06.2016 19:15 11,8 C 11,9 C 86 % 1012,2 hPa 0,0 mm 0,0 km/h (0 Bft) S 180 0 min 9,5 C 0,0 km/h (0 Bft)
03.06.2016 19:20 12,0 C 12,1 C 86 % 1012,2 hPa 0,0 mm 0,0 km/h (0 Bft) SO 135 0 min 9,7 C 0,0 km/h (0 Bft)
03.06.2016 19:23 12,0 C 12,2 C 86 % 1012,2 hPa 0,0 mm 0,0 km/h (0 Bft) O-SO 112 0 min 9,7 C 0,0 km/h (0 Bft)
03.06.2016 19:24 12,0 C 12,2 C 86 % 1012,2 hPa 0,0 mm 0,0 km/h (0 Bft) O-SO 112 0 min 9,7 C 0,0 km/h (0 Bft)
03.06.2016 19:25 12,0 C 12,2 C 86 % 1012,2 hPa 0,0 mm 0,0 km/h (0 Bft) O-SO 112 0 min 9,7 C 0,0 km/h (0 Bft)
03.06.2016 19:30 12,1 C 12,2 C 86 % 1012,4 hPa 0,7 mm 0,0 km/h (0 Bft) S 180 0 min 9,8 C 0,0 km/h (0 Bft)
03.06.2016 19:35 12,1 C 12,2 C 86 % 1012,4 hPa 0,0 mm 0,0 km/h (0 Bft) S-SO 157 0 min 9,8 C 0,0 km/h (0 Bft)
03.06.2016 19:40 12,1 C 12,3 C 86 % 1012,4 hPa 0,0 mm 0,0 km/h (0 Bft) SO 135 0 min 9,8 C 0,0 km/h (0 Bft)
03.06.2016 19:45 12,1 C 12,3 C 86 % 1012,4 hPa 0,0 mm 0,0 km/h (0 Bft) S-SO 157 0 min 9,8 C 0,0 km/h (0 Bft)
03.06.2016 19:50 12,2 C 12,4 C 86 % 1012,4 hPa 0,0 mm 0,0 km/h (0 Bft) S-SO 157 0 min 9,9 C 0,0 km/h (0 Bft)
03.06.2016 19:55 12,2 C 12,4 C 86 % 1012,4 hPa 0,0 mm 0,0 km/h (0 Bft) O-SO 112 0 min 9,9 C 0,0 km/h (0 Bft)
03.06.2016 20:00 12,3 C 12,5 C 86 % 1012,4 hPa 0,0 mm 0,0 km/h (0 Bft) SO 135 0 min 10,0 C 0,0 km/h (0 Bft)
03.06.2016 20:05 12,3 C 12,5 C 86 % 1012,4 hPa 0,0 mm 0,0 km/h (0 Bft) O 90 0 min 10,0 C 0,0 km/h (0 Bft)
03.06.2016 20:10 12,3 C 12,5 C 86 % 1012,3 hPa 0,0 mm 0,0 km/h (0 Bft) O 90 0 min 10,0 C 0,0 km/h (0 Bft)
03.06.2016 20:15 12,3 C 12,5 C 86 % 1012,3 hPa 0,0 mm 0,0 km/h (0 Bft) O 90 0 min 10,0 C 0,0 km/h (0 Bft)
03.06.2016 20:20 12,3 C 12,4 C 86 % 1012,3 hPa 0,0 mm 0,0 km/h (0 Bft) O 90 0 min 10,0 C 0,0 km/h (0 Bft)
03.06.2016 20:25 12,3 C 12,4 C 86 % 1012,3 hPa 0,0 mm 0,0 km/h (0 Bft) O 90 0 min 10,0 C 0,0 km/h (0 Bft)
03.06.2016 20:30 12,3 C 12,4 C 86 % 1012,2 hPa 0,0 mm 0,0 km/h (0 Bft) O 90 0 min 10,0 C 0,0 km/h (0 Bft)
03.06.2016 20:35 12,3 C 12,3 C 86 % 1012,2 hPa 0,0 mm 0,0 km/h (0 Bft) O 90 0 min 10,0 C 0,0 km/h (0 Bft)
03.06.2016 20:40 12,2 C 12,3 C 86 % 1012,2 hPa 0,0 mm 0,0 km/h (0 Bft) O 90 0 min 9,9 C 0,0 km/h (0 Bft)
03.06.2016 20:45 12,1 C 12,3 C 86 % 1012,2 hPa 0,0 mm 0,0 km/h (0 Bft) O 90 0 min 9,8 C 0,0 km/h (0 Bft)
03.06.2016 20:50 12,1 C 12,3 C 86 % 1012,3 hPa 0,0 mm 0,0 km/h (0 Bft) O 90 0 min 9,8 C 0,0 km/h (0 Bft)
03.06.2016 20:55 12,1 C 12,3 C 86 % 1012,3 hPa 0,0 mm 0,0 km/h (0 Bft) O 90 0 min 9,8 C 0,0 km/h (0 Bft)
03.06.2016 21:00 12,0 C 12,3 C 87 % 1012,3 hPa 0,0 mm 0,0 km/h (0 Bft) O 90 0 min 9,9 C 0,0 km/h (0 Bft)
03.06.2016 21:05 12,0 C 12,3 C 87 % 1012,3 hPa 0,0 mm 0,0 km/h (0 Bft) O 90 0 min 9,9 C 0,0 km/h (0 Bft)
03.06.2016 21:10 12,0 C 12,3 C 87 % 1012,4 hPa 0,0 mm 0,0 km/h (0 Bft) O 90 0 min 9,9 C 0,0 km/h (0 Bft)
03.06.2016 21:15 11,9 C 12,3 C 87 % 1012,4 hPa 0,0 mm 0,0 km/h (0 Bft) O 90 0 min 9,8 C 0,0 km/h (0 Bft)
03.06.2016 21:20 11,8 C 12,3 C 87 % 1012,4 hPa 0,0 mm 0,0 km/h (0 Bft) O 90 0 min 9,7 C 0,0 km/h (0 Bft)
03.06.2016 21:25 11,8 C 12,3 C 87 % 1012,4 hPa 0,0 mm 0,0 km/h (0 Bft) O 90 0 min 9,7 C 0,0 km/h (0 Bft)
03.06.2016 21:30 11,7 C 12,3 C 87 % 1012,4 hPa 0,0 mm 0,0 km/h (0 Bft) O 90 0 min 9,6 C 0,0 km/h (0 Bft)
03.06.2016 21:35 11,7 C 12,3 C 87 % 1012,4 hPa 0,0 mm 0,0 km/h (0 Bft) O 90 0 min 9,6 C 0,0 km/h (0 Bft)
03.06.2016 21:40 11,6 C 12,3 C 87 % 1012,4 hPa 0,0 mm 0,0 km/h (0 Bft) O 90 0 min 9,5 C 0,0 km/h (0 Bft)
03.06.2016 21:45 11,6 C 12,3 C 87 % 1012,4 hPa 0,0 mm 0,0 km/h (0 Bft) O 90 0 min 9,5 C 0,0 km/h (0 Bft)
03.06.2016 21:50 11,5 C 12,3 C 87 % 1012,4 hPa 0,0 mm 0,0 km/h (0 Bft) O 90 0 min 9,4 C 0,0 km/h (0 Bft)
03.06.2016 21:55 11,5 C 12,3 C 87 % 1012,4 hPa 0,0 mm 0,0 km/h (0 Bft) O 90 0 min 9,4 C 0,0 km/h (0 Bft)
03.06.2016 22:00 11,5 C 12,3 C 87 % 1012,4 hPa 0,0 mm 0,0 km/h (0 Bft) O 90 0 min 9,4 C 0,0 km/h (0 Bft)
03.06.2016 22:05 11,5 C 12,3 C 87 % 1012,4 hPa 0,0 mm 0,0 km/h (0 Bft) O 90 0 min 9,4 C 0,0 km/h (0 Bft)
03.06.2016 22:10 11,5 C 12,3 C 87 % 1012,4 hPa 0,0 mm 0,0 km/h (0 Bft) O 90 0 min 9,4 C 0,0 km/h (0 Bft)
03.06.2016 22:15 11,4 C 12,3 C 87 % 1012,4 hPa 0,0 mm 0,0 km/h (0 Bft) O 90 0 min 9,3 C 0,0 km/h (0 Bft)
03.06.2016 22:20 11,4 C 12,3 C 87 % 1012,4 hPa 0,0 mm 0,0 km/h (0 Bft) O 90 0 min 9,3 C 0,0 km/h (0 Bft)
03.06.2016 22:23 11,4 C 7,6 C 87 % 1012,4 hPa 0,0 mm 0,0 km/h (0 Bft) O 90 0 min 9,3 C 0,0 km/h (0 Bft)
03.06.2016 22:25 11,4 C 7,6 C 87 % 1012,4 hPa 0,0 mm 0,0 km/h (0 Bft) O 90 0 min 9,3 C 0,0 km/h (0 Bft)
03.06.2016 22:30 11,3 C 7,5 C 87 % 1012,5 hPa 0,0 mm 0,0 km/h (0 Bft) O 90 0 min 9,2 C 0,0 km/h (0 Bft)
03.06.2016 22:35 11,3 C 7,5 C 87 % 1012,5 hPa 0,0 mm 0,0 km/h (0 Bft) O 90 0 min 9,2 C 0,0 km/h (0 Bft)
03.06.2016 22:40 11,3 C 7,4 C 87 % 1012,5 hPa 0,0 mm 0,0 km/h (0 Bft) O 90 0 min 9,2 C 0,0 km/h (0 Bft)
03.06.2016 22:45 11,2 C 7,4 C 87 % 1012,5 hPa 0,0 mm 0,0 km/h (0 Bft) O 90 0 min 9,1 C 0,0 km/h (0 Bft)
03.06.2016 22:50 11,1 C 7,3 C 87 % 1012,6 hPa 0,0 mm 0,0 km/h (0 Bft) O 90 0 min 9,0 C 0,0 km/h (0 Bft)
03.06.2016 22:55 11,1 C 7,3 C 87 % 1012,6 hPa 0,0 mm 0,0 km/h (0 Bft) O 90 0 min 9,0 C 0,0 km/h (0 Bft)
03.06.2016 23:00 11,0 C 7,3 C 87 % 1012,6 hPa 0,0 mm 0,0 km/h (0 Bft) O 90 0 min 8,9 C 0,0 km/h (0 Bft)
03.06.2016 23:05 11,0 C 7,3 C 87 % 1012,6 hPa 0,0 mm 0,0 km/h (0 Bft) O 90 0 min 8,9 C 0,0 km/h (0 Bft)
03.06.2016 23:10 11,0 C 7,3 C 87 % 1012,5 hPa 0,0 mm 0,0 km/h (0 Bft) O 90 0 min 8,9 C 0,0 km/h (0 Bft)
03.06.2016 23:15 11,0 C 7,3 C 87 % 1012,5 hPa 0,0 mm 0,0 km/h (0 Bft) O 90 0 min 8,9 C 0,0 km/h (0 Bft)
03.06.2016 23:20 11,1 C 7,3 C 87 % 1012,5 hPa 0,0 mm 0,0 km/h (0 Bft) O 90 0 min 9,0 C 0,0 km/h (0 Bft)
03.06.2016 23:25 11,0 C 7,3 C 87 % 1012,5 hPa 0,0 mm 0,0 km/h (0 Bft) O 90 0 min 8,9 C 0,0 km/h (0 Bft)
03.06.2016 23:30 11,0 C 7,3 C 87 % 1012,4 hPa 0,0 mm 0,0 km/h (0 Bft) O 90 0 min 8,9 C 0,0 km/h (0 Bft)
03.06.2016 23:35 10,9 C 7,3 C 87 % 1012,4 hPa 0,0 mm 0,0 km/h (0 Bft) O 90 0 min 8,8 C 0,0 km/h (0 Bft)
03.06.2016 23:40 10,9 C 7,2 C 87 % 1012,4 hPa 0,0 mm 0,0 km/h (0 Bft) O 90 0 min 8,8 C 0,0 km/h (0 Bft)
03.06.2016 23:45 11,0 C 7,3 C 87 % 1012,4 hPa 0,0 mm 0,0 km/h (0 Bft) O 90 0 min 8,9 C 0,0 km/h (0 Bft)
03.06.2016 23:50 10,9 C 7,2 C 87 % 1012,5 hPa 0,0 mm 0,0 km/h (0 Bft) O 90 0 min 8,8 C 0,0 km/h (0 Bft)
03.06.2016 23:55 10,8 C 7,1 C 87 % 1012,5 hPa 0,0 mm 0,0 km/h (0 Bft) O 90 0 min 8,7 C 0,0 km/h (0 Bft)
_ Min-Zeit 05:55 23:55 14:35 16:25 - 23:55 - - - 03:15 23:55
Minimum _ 10,4 C 7,1 C 63 % 1011,9 hPa - 0,0 km/h (0 Bft) - - - 8,4 C 0,0 km/h (0 Bft)
_ Max-Zeit 13:50 13:55 08:40 13:05 16:30 14:45 - - 15:40 13:50 16:30
Maximum _ 19,9 C 26,6 C 88 % 1012,9 hPa 4,8 mm 9,8 km/h
SW (2 Bft)
- - 5 min 12,9 C 19,7 km/h
N (3 Bft)
Durchschnitt _ 13,1 C 14,1 C 81 % 1012,3 hPa #17,9 mm 1,2 km/h (1 Bft) NW - #5:05 h 9,9 C 1,8 km/h (1 Bft)